Wind_Speed
18 16 14 12 11 10 10 9 8 7 7 5 4 3 3 4 3 3 4 5 5 5 6 6 7 7 6 5 4 3 1 1 1
21 18 15 14 12 11 11 11 10 9 8 7 5 4 3 3 3 5 6 7 7 6 7 7 7 6 5 3 2 2 1 1 1
23 19 17 16 14 13 13 12 12 11 10 8 6 6 5 4 4 5 6 7 6 5 5 5 6 5 4 4 3 3 3 2 2
24 21 19 18 16 15 15 14 14 12 11 10 9 8 7 5 5 5 6 6 6 6 6 6 6 5 5 4 4 3 1 2 4
25 23 22 20 18 17 17 16 16 14 13 13 12 12 10 8 8 7 6 6 7 7 6 6 5 4 4 3 2 2 3 4 6
27 26 25 22 20 19 19 18 17 16 15 15 15 13 12 11 9 9 8 8 8 8 7 6 5 4 3 3 4 4 5 6 7
30 30 27 25 23 21 21 20 18 18 17 16 16 15 14 13 12 12 10 10 9 9 8 7 6 6 6 6 6 6 6 7 8
33 33 30 28 25 23 23 22 20 19 18 18 18 17 16 15 15 14 13 12 12 11 10 10 10 10 9 9 8 8 9 9 9
36 35 31 29 28 26 26 25 23 21 19 18 19 18 17 18 18 18 17 16 15 14 13 13 12 12 11 11 10 9 8 10 12
38 36 34 31 29 29 28 26 25 23 22 20 19 19 20 21 20 21 20 18 18 17 15 15 15 14 13 11 10 10 11 11 12
41 39 37 34 33 31 30 27 27 26 25 23 21 20 21 23 20 21 21 21 20 20 18 18 17 16 13 12 12 13 13 13 14
43 41 39 37 34 33 31 28 28 28 28 27 25 23 24 23 21 22 23 23 22 22 21 20 19 16 16 15 14 15 17 19 22
45 44 42 40 37 34 33 30 30 31 30 30 29 27 26 25 24 23 24 24 25 25 23 22 20 20 19 19 20 21 22 25 26
47 45 44 43 40 36 36 35 33 34 33 33 31 30 29 28 27 27 26 28 27 27 26 24 24 24 24 25 25 26 27 28 31
47 47 46 45 42 40 39 39 37 36 35 34 33 33 33 31 32 32 32 32 31 31 31 28 29 29 29 29 29 30 31 34 37
49 48 48 48 46 45 44 43 41 39 37 37 37 37 37 36 36 37 36 36 35 34 35 34 33 33 34 33 33 36 37 40 41
50 51 51 51 50 49 47 46 45 43 41 41 42 41 41 40 40 41 40 40 40 39 38 39 39 38 38 38 38 40 42 43 46
53 55 54 54 54 53 52 50 48 47 46 44 45 44 44 45 45 44 43 43 43 43 44 44 44 43 43 42 44 46 46 47 50
57 56 57 57 56 56 56 54 53 52 50 49 48 48 47 47 47 46 46 45 46 46 48 48 50 49 49 49 50 50 51 53 54
55 58 57 57 57 58 59 58 57 56 55 53 53 53 51 49 48 48 48 48 48 50 51 52 53 53 54 54 55 56 56 57 58
Wind_Direction
213 214 211 209 209 211 214 214 213 214 220 202 191 177 166 184 188 198 184 169 167 154 149 151 150 162 163 160 150 135 123 86 49
215 216 210 205 213 216 217 218 220 222 222 209 200 189 188 193 184 185 190 180 177 175 172 164 167 164 164 164 166 168 198 205 232
219 217 208 211 214 224 223 223 222 223 220 215 209 197 198 188 193 196 201 196 182 180 178 176 176 176 180 190 194 188 194 196 279
220 215 213 218 219 225 228 227 228 225 220 217 210 207 206 198 198 196 207 200 182 184 182 180 180 169 171 183 184 185 216 291 307
222 215 216 221 226 228 231 229 228 224 220 219 212 210 211 202 212 200 211 205 192 187 180 175 169 164 166 185 203 237 283 298 302
222 220 220 221 228 230 232 230 229 224 220 219 219 218 217 213 214 211 208 207 197 192 185 178 171 178 198 216 240 268 290 290 293
222 221 222 223 228 231 232 231 227 222 221 223 224 224 223 223 217 219 213 214 210 207 193 193 210 215 228 239 252 259 265 280 293
223 223 223 226 229 232 231 230 228 224 223 228 230 229 229 229 227 223 219 221 217 214 214 213 220 230 235 242 248 263 280 294 302
222 225 227 229 231 233 231 230 230 228 229 230 232 236 234 233 232 227 223 222 222 224 223 226 229 236 243 251 263 272 276 287 296
223 225 228 230 234 236 233 234 234 234 233 234 232 234 236 237 236 232 229 228 228 230 229 234 238 243 248 251 256 269 280 292 302
225 225 228 231 233 237 233 234 236 236 237 237 237 235 239 242 238 236 232 234 233 236 233 238 243 248 248 255 268 276 279 287 298
225 227 229 232 234 238 237 236 239 239 240 241 238 234 241 244 238 233 236 233 234 238 241 243 249 250 258 259 269 273 282 291 296
227 228 229 232 234 237 238 235 239 241 241 243 242 238 238 243 241 237 235 237 239 241 243 244 246 247 253 258 266 270 274 286 292
230 230 231 232 233 235 236 238 237 239 241 243 244 241 240 241 245 243 242 242 242 245 245 246 250 251 255 260 265 274 280 287 293
232 233 234 234 235 235 236 237 239 238 239 241 242 244 243 242 244 245 243 245 244 244 247 248 250 256 259 265 269 275 279 286 289
234 235 236 237 237 237 237 238 239 241 239 239 240 242 244 243 242 244 246 246 248 247 249 253 255 258 263 267 271 275 280 285 288
237 236 236 237 239 239 240 240 241 241 242 240 240 243 245 248 246 245 246 248 250 252 253 255 257 260 264 266 270 274 276 282 284
234 238 239 239 239 242 242 243 244 244 243 244 245 245 247 248 249 250 250 250 251 253 255 258 261 264 266 268 270 273 278 280 285
238 237 238 240 242 242 243 243 244 245 246 246 248 248 248 249 250 253 254 254 255 255 256 258 260 263 266 268 270 273 277 280 282
237 239 239 241 243 245 247 247 247 247 247 247 248 250 252 254 255 254 255 256 255 256 258 259 260 262 264 267 270 272 274 278 284
Height
5868 5869 5870 5871 5873 5874 5874 5875 5876 5877 5877 5878 5878 5879 5879 5879 5880 5880 5880 5879 5880 5880 5880 5881 5881 5881 5882 5883 5883 5883 5883 5883 5883
5865 5867 5868 5870 5871 5872 5873 5874 5875 5876 5876 5877 5877 5878 5878 5878 5879 5879 5879 5879 5879 5879 5880 5881 5881 5881 5881 5882 5882 5883 5883 5883 5883
5863 5865 5866 5868 5869 5870 5871 5873 5874 5874 5875 5876 5876 5877 5876 5877 5877 5878 5879 5879 5879 5879 5879 5880 5880 5881 5881 5881 5882 5882 5882 5883 5883
5861 5863 5864 5865 5867 5868 5869 5870 5871 5872 5873 5874 5875 5875 5875 5876 5877 5877 5879 5879 5879 5879 5879 5879 5879 5880 5880 5881 5881 5881 5882 5883 5883
5858 5860 5861 5863 5865 5865 5866 5868 5869 5870 5872 5872 5873 5874 5874 5875 5875 5876 5877 5878 5878 5878 5878 5878 5878 5879 5879 5879 5880 5880 5881 5881 5881
5855 5857 5859 5860 5861 5863 5863 5865 5867 5868 5870 5870 5871 5872 5873 5873 5874 5874 5875 5876 5876 5876 5877 5877 5877 5877 5877 5878 5878 5878 5879 5879 5879
5850 5853 5856 5857 5859 5860 5861 5862 5864 5866 5867 5868 5869 5870 5871 5872 5872 5872 5873 5874 5875 5875 5876 5876 5876 5876 5876 5876 5876 5877 5877 5877 5877
5846 5849 5852 5854 5856 5857 5858 5860 5861 5863 5864 5865 5866 5868 5869 5869 5870 5870 5871 5872 5872 5873 5873 5874 5874 5874 5875 5875 5876 5876 5876 5876 5875
5841 5844 5848 5850 5851 5853 5854 5856 5857 5859 5861 5862 5863 5864 5865 5866 5867 5867 5868 5869 5870 5870 5871 5871 5872 5872 5873 5874 5874 5874 5873 5873 5872
5835 5839 5842 5845 5847 5848 5850 5852 5853 5855 5856 5858 5860 5861 5862 5861 5863 5864 5866 5866 5867 5868 5869 5869 5869 5869 5870 5870 5871 5870 5870 5869 5869
5829 5833 5837 5840 5841 5843 5845 5847 5849 5850 5851 5853 5855 5858 5857 5857 5859 5860 5862 5863 5864 5865 5866 5865 5866 5866 5867 5867 5867 5866 5865 5865 5864
5823 5827 5831 5834 5836 5838 5841 5843 5845 5846 5847 5848 5850 5853 5853 5853 5855 5856 5857 5858 5860 5861 5862 5862 5862 5863 5863 5863 5862 5862 5862 5861 5860
5816 5820 5824 5827 5830 5833 5835 5838 5839 5841 5842 5843 5844 5847 5849 5849 5850 5852 5853 5855 5855 5855 5857 5857 5857 5858 5858 5858 5857 5856 5855 5855 5854
5810 5813 5817 5820 5823 5826 5828 5831 5833 5834 5835 5837 5838 5841 5843 5844 5845 5847 5848 5849 5850 5850 5850 5851 5852 5852 5852 5851 5851 5851 5851 5850 5848
5802 5806 5810 5813 5816 5818 5820 5823 5825 5826 5828 5830 5832 5833 5836 5838 5839 5840 5841 5842 5843 5844 5844 5844 5845 5845 5846 5845 5845 5845 5844 5843 5841
5793 5797 5801 5805 5807 5809 5812 5814 5817 5819 5820 5822 5824 5825 5826 5829 5831 5832 5833 5835 5835 5837 5837 5837 5838 5838 5839 5838 5838 5837 5836 5834 5832
5783 5787 5791 5795 5798 5800 5803 5806 5808 5810 5812 5814 5814 5816 5819 5821 5822 5823 5825 5826 5827 5829 5829 5830 5830 5830 5830 5830 5829 5829 5827 5825 5823
5775 5778 5781 5784 5788 5791 5794 5796 5799 5802 5803 5805 5806 5807 5810 5810 5811 5814 5816 5817 5819 5819 5821 5821 5822 5822 5821 5821 5820 5818 5817 5815 5813
5764 5768 5770 5774 5777 5780 5782 5785 5788 5791 5793 5795 5796 5798 5799 5800 5802 5804 5805 5807 5809 5810 5810 5811 5811 5811 5811 5810 5809 5808 5807 5804 5802
5754 5757 5760 5762 5765 5769 5772 5775 5777 5779 5781 5783 5784 5787 5789 5791 5793 5794 5795 5795 5797 5797 5799 5799 5800 5800 5799 5798 5797 5795 5793 5792 5790